Location: Newark
(29.9790°N, 31.1340°E)
Time: 19:02:31
(UTC+00:00)

A-11 Canister half - Pass Details

Date: 01 February 2020
Orbit: 1524 x 1684 km, 47.3° (Epoch: 22 February)

Event Time Altitude Azimuth Distance (km) Brightness Sun altitude
Rises 17:58:38 0° 307° (NW) 4,703 12.2 -31.9°
Reaches altitude 10° 18:02:05 10° 317° (NW) 3,736 11.5 -32.6°
Enters shadow 18:09:59 35° 13° (NNE) 2,354 9.8 -34.3°
